Regional Weather Roundup
Issued by NWS

Home | Current Version | Previous Version | Graphics & Text | Print | Product List | Glossary On
Versions: 1 2 3 4 5 6 7 8 9 10 11 12 13 14 15 16 17 18 19 20 21 22 23 24 25 26 27 28 29 30 31 32 33 34 35 36 37 38 39 40 41 42 43 44 45 46 47 48 49 50
000
ASUS43 KLOT 242003
RWRIL

ILLINOIS REGIONAL WEATHER ROUNDUP
NATIONAL WEATHER SERVICE CHICAGO/ROMEOVILLE IL
300 PM CDT MON JUL 24 2017

NOTE: "FAIR" INDICATES FEW OR NO CLOUDS BELOW 12,000 FEET WITH NO
SIGNIFICANT WEATHER AND/OR OBSTRUCTIONS TO VISIBILITY.

* THESE STATIONS ARE NOT UNDER NWS QUALITY CONTROL. THEY ALSO MAY NOT
  REPORT WEATHER SUCH AS PRECIPITATION OR FOG.

ILZ001-002-007-009-015-016-024-242100-
NORTHWEST ILLINOIS

CITY           SKY/WX    TMP DP  RH WIND       PRES   REMARKS
MOLINE         CLOUDY    74  64  71 E7        30.05R
STERLING*      PTSUNNY   74  63  68 NE3       30.06R
SAVANNA*       PTSUNNY   75  61  60 E7        30.06S
$$

ILZ003-004-008-010-011-017-018-242100-
NORTH CENTRAL ILLINOIS

CITY           SKY/WX    TMP DP  RH WIND       PRES   REMARKS
ROCKFORD       PTSUNNY   77  58  51 E6        30.07S
FREEPORT*      PTSUNNY   73  60  63 NE9       30.09S
ROCHELLE*      PTSUNNY   73  60  63 NE9       30.06F
DE KALB*       MOSUNNY   73  60  64 NE9G16    30.07S
PERU*          MOSUNNY  N/A N/A N/A NE5       30.05S
$$

ILZ005-006-012>014-019>023-242100-
NORTHEAST ILLINOIS

CITY           SKY/WX    TMP DP  RH WIND       PRES   REMARKS
CHICAGO-OHARE  PTSUNNY   73  58  59 NE14      30.05S
CHICAGO-MIDWAY PTSUNNY   73  58  59 N15       30.04S
AURORA         MOSUNNY   75  61  61 NE13      30.05S
LANSING*       CLOUDY    71  57  61 NE12      30.05S
JOLIET*        MOSUNNY   75  60  60 NE6       30.05S
WAUKEGAN       MOSUNNY   69  60  73 NE12      30.06S
DUPAGE AIRPORT MOSUNNY   73  60  63 NE10G22   30.05S
WHEELING       CLOUDY    69  61  75 N13       30.08S
MORRIS*        PTSUNNY   75  61  60 NE5       30.04S
ROMEOVILLE*    MOSUNNY   74  57  55 N9G18     30.05S
NORTHERLY ISL    N/A     72  58  61 MISG        N/A
$$

LMZ740>746-242100-
SOUTHERN LAKE MICHIGAN

STATION/POSITION SKY/WX   TEMP    WIND        PRES    VSBY  WAVE
                          AIR SEA DIR/SP/G                  HT/PER
                          (F)     (DEG/KT/KT) (MB)    (MI)  (FT/S)
SOUTHERN BUOY              66 70   10/ 12/ 16 1017.7          4/ 6
WILMETTE HARBOR            67 72   20/ 12/ 16   N/A           5/ 6
HARRISON CRIB              68      10/ 13/ 15   N/A
BURNHAM HARBOR             71                   N/A
CALUMET HARBOR             70     360/ 10/ 15 1017.3R
BURNS HARBOR               69      10/ 12/ 16 1017.9R
MICHIGAN CITY              67      10/ 12/ 13   N/A
MICHIGAN CITY 6N           68 74   30/ 10/ 16   N/A           5/ 5
ST. JOSEPH                 69 74   30/ 12/ 16 1017.3R         4/ 6
$$

ILZ025>027-034>036-040-047-049-050-058-095>099-242100-
WEST-CENTRAL ILLINOIS

CITY           SKY/WX    TMP DP  RH WIND       PRES   REMARKS
QUINCY         CLOUDY    82  62  50 N6        30.00S HX  83
GALESBURG*     CLOUDY    73  65  75 NE10      30.06R
MACOMB*        MOSUNNY   78  68  71 NE9       30.04S HX  80
JACKSONVILLE*  PTSUNNY   80  66  63 NE9       30.00S HX  82
PITTSFIELD*    MOSUNNY   83  64  51 CALM      30.01R HX  85
$$

ILZ028>032-037-038-041>044-048-051>054-059>061-242100-
CENTRAL ILLINOIS

CITY           SKY/WX    TMP DP  RH WIND       PRES   REMARKS
PONTIAC        CLOUDY    76  66  73 N6        30.04S
BLOOMINGTON    PTSUNNY   78  66  66 NE9G17    30.04S HX  80
DECATUR        PTSUNNY   79  66  64 NE8       30.01R HX  81
PEORIA         CLOUDY    76  66  71 NE6       30.03S
LACON*         CLOUDY    74  64  70 N6        30.03S
LINCOLN*       CLOUDY    77  69  74 NE7       30.02S
SPRINGFIELD    MOSUNNY   82  70  66 N13       30.01S HX  86
TAYLORVILLE    PTSUNNY   80  69  69 NE10      30.00S HX  83
$$

ILZ033-039-045-046-055>057-062-063-242100-
EAST-CENTRAL ILLINOIS

CITY           SKY/WX    TMP DP  RH WIND       PRES   REMARKS
CHAMPAIGN      CLOUDY    78  65  63 N5        30.02R HX  80
RANTOUL*       PTSUNNY   81  67  60 NE9       30.02R HX  84
MATTOON        MOSUNNY   81  69  67 N9        29.99S HX  84
PARIS*         PTSUNNY   79  69  69 N6        30.02R HX  82
$$

ILZ079-100>102-242100-
SOUTHWEST ILLINOIS

CITY           SKY/WX    TMP DP  RH WIND       PRES   REMARKS
ALTON          MOSUNNY   84  68  58 N7        29.98S HX  87
BELLEVILLE     MOSUNNY   86  69  56 NE3       29.98S HX  90
CAHOKIA*       MOSUNNY   90  65  43 E10       29.96S HX  92
SPARTA*        MOSUNNY   87  67  50 CALM      29.97S HX  90
$$

ILZ064>066-069>071-074>076-080>082-084>086-088>090-092>094-242100-
SOUTH-CENTRAL ILLINOIS

CITY           SKY/WX    TMP DP  RH WIND       PRES   REMARKS
CARBONDALE     MOSUNNY   90  73  57 VRB3      29.95S HX  98
CAIRO*         SUNNY     91  74  56 SE6       29.93F HX 100
EFFINGHAM*     PTSUNNY   84  66  53 N5        29.99F HX  86
MARION         MOSUNNY   88  73  62 N7        29.96S HX  96
MT. VERNON     MOSUNNY   89  67  47 VRB5      29.96S HX  92
CENTRALIA*     MOSUNNY   87  71  57 N5        29.96F HX  92
SALEM*         MOSUNNY   87  67  51 N5        29.97S HX  89
METROPOLIS*    SUNNY     93  71  49 W7        29.94F HX  99
$$

ILZ067-068-072-073-078-083-087-091-242100-
SOUTHEAST ILLINOIS

CITY           SKY/WX    TMP DP  RH WIND       PRES   REMARKS
LAWRENCEVILLE  SUNNY     85  69  58 N10       29.97R HX  89
FLORA*         PTSUNNY   86  67  52 N3        29.97S HX  89
FAIRFIELD*     MOSUNNY   87  69  55 CALM      29.95S HX  91
HARRISBURG*    PTSUNNY   88  73  60 NE6       29.95S HX  95
ROBINSON*      MOSUNNY   83  69  62 N6        29.98S HX  86
CARMI*         SUNNY     87  73  62 N6        29.94F HX  94
$$

ABBREVIATIONS USED IN REMARKS
   TC - TEMPERATURE IN CELSIUS
  WCI - WIND CHILL INDEX
   HX - HEAT INDEX
  VSB - VISIBILITY
$$





USA.gov is the U.S. government's official web portal to all federal, state and local government web resources and services.